| time (UTC) | temp F | wind direction | speed knots | gust knots | rain 1hr in | rain 24hr in | rain mn in | humidity % | barometer mb |
| 20260504031001 | 36 | 265 | 0.0 | 1.7 | 0.00 | 0.00 | 0.00 | 81 | 1010.3 |
| 20260504030502 | 36 | 291 | 0.9 | 1.7 | 0.00 | 0.00 | 0.00 | 80 | 1010.3 |
| 20260504030003 | 36 | 247 | 0.0 | 2.6 | 0.00 | 0.00 | 0.00 | 81 | 1010.4 |
| 20260504025502 | 36 | 255 | 0.9 | 2.6 | 0.00 | 0.00 | 0.00 | 80 | 1010.4 |
| 20260504025004 | 36 | 212 | 0.9 | 2.6 | 0.00 | 0.00 | 0.00 | 79 | 1010.4 |
| 20260504024502 | 36 | 232 | 0.9 | 2.6 | 0.00 | 0.00 | 0.00 | 79 | 1010.4 |
| 20260504024001 | 36 | 265 | 0.9 | 2.6 | 0.00 | 0.00 | 0.00 | 78 | 1010.5 |
| 20260504023502 | 36 | 273 | 1.7 | 2.6 | 0.00 | 0.00 | 0.00 | 78 | 1010.4 |
| 20260504023004 | 36 | 247 | 0.9 | 2.6 | 0.00 | 0.00 | 0.00 | 78 | 1010.4 |
| 20260504022505 | 37 | 250 | 0.9 | 2.6 | 0.00 | 0.00 | 0.00 | 78 | 1010.4 |
| 20260504022004 | 37 | 178 | 0.0 | 2.6 | 0.00 | 0.00 | 0.00 | 77 | 1010.3 |
| 20260504021509 | 37 | 221 | 0.9 | 3.5 | 0.00 | 0.00 | 0.00 | 77 | 1010.3 |
| 20260504021002 | 37 | 282 | 1.7 | 3.5 | 0.00 | 0.00 | 0.00 | 77 | 1010.3 |
| 20260504020502 | 37 | 242 | 1.7 | 2.6 | 0.00 | 0.00 | 0.00 | 78 | 1010.2 |
| 20260504020003 | 37 | 265 | 0.9 | 5.2 | 0.00 | 0.00 | 0.00 | 76 | 1010.1 |
| 20260504015502 | 38 | 249 | 1.7 | 5.2 | 0.00 | 0.00 | 0.00 | 75 | 1010.1 |
| 20260504015001 | 38 | 229 | 2.6 | 4.3 | 0.00 | 0.00 | 0.00 | 75 | 1010.0 |
| 20260504014503 | 38 | 255 | 0.9 | 3.5 | 0.00 | 0.00 | 0.00 | 75 | 1010.1 |
| 20260504014002 | 38 | 286 | 1.7 | 3.5 | 0.00 | 0.00 | 0.00 | 74 | 1010.0 |
| 20260504013503 | 39 | 216 | 2.6 | 5.2 | 0.00 | 0.00 | 0.00 | 73 | 1010.0 |
| 20260504013005 | 39 | 344 | 0.9 | 5.2 | 0.00 | 0.00 | 0.00 | 72 | 1009.9 |
| 20260504012503 | 39 | 255 | 0.9 | 2.6 | 0.00 | 0.00 | 0.00 | 72 | 1009.8 |
| 20260504012003 | 39 | 221 | 0.9 | 2.6 | 0.00 | 0.00 | 0.00 | 71 | 1009.7 |
| 20260504011504 | 40 | 153 | 0.9 | 4.3 | 0.00 | 0.00 | 0.00 | 71 | 1009.6 |
| 20260504011002 | 40 | 238 | 1.7 | 4.3 | 0.00 | 0.00 | 0.00 | 71 | 1009.5 |
| 20260504010502 | 40 | 236 | 2.6 | 3.5 | 0.00 | 0.00 | 0.00 | 70 | 1009.5 |
| 20260504010004 | 41 | 265 | 0.9 | 2.6 | 0.00 | 0.00 | 0.00 | 69 | 1009.3 |
| 20260504005502 | 41 | 242 | 0.9 | 2.6 | 0.00 | 0.00 | 0.00 | 69 | 1009.3 |
| 20260504005002 | 41 | 265 | 0.9 | 5.2 | 0.00 | 0.00 | 0.00 | 67 | 1009.2 |
| 20260504004511 | 42 | 250 | 2.6 | 5.2 | 0.00 | 0.00 | 0.00 | 68 | 1009.1 |
| 20260504004003 | 42 | 249 | 2.6 | 4.3 | 0.00 | 0.00 | 0.00 | 69 | 1009.0 |
| 20260504003501 | 42 | 229 | 1.7 | 3.5 | 0.00 | 0.00 | 0.00 | 68 | 1008.9 |
| 20260504003003 | 42 | 219 | 1.7 | 2.6 | 0.00 | 0.00 | 0.00 | 69 | 1008.8 |
| 20260504002503 | 43 | 238 | 0.9 | 3.5 | 0.00 | 0.00 | 0.00 | 69 | 1008.8 |
| 20260504002003 | 43 | 265 | 1.7 | 3.5 | 0.00 | 0.00 | 0.00 | 65 | 1008.7 |
| 20260504001510 | 43 | 250 | 0.0 | 2.6 | 0.00 | 0.00 | 0.00 | 66 | 1008.7 |
| 20260504001003 | 44 | 338 | 0.9 | 2.6 | 0.00 | 0.00 | 0.00 | 68 | 1008.6 |
| 20260504000502 | 45 | 247 | 0.9 | 3.5 | 0.00 | 0.00 | 0.00 | 65 | 1008.5 |
| 20260504000004 | 46 | 254 | 0.9 | 3.5 | 0.00 | 0.00 | 0.00 | 57 | 1008.6 |
| 20260503235502 | 46 | 249 | 1.7 | 3.5 | 0.00 | 0.00 | 0.00 | 56 | 1008.5 |
| 20260503235003 | 47 | 249 | 1.7 | 3.5 | 0.00 | 0.00 | 0.00 | 55 | 1008.4 |
| 20260503234504 | 48 | 241 | 1.7 | 2.6 | 0.00 | 0.00 | 0.00 | 51 | 1008.3 |
| 20260503234003 | 48 | 238 | 0.9 | 2.6 | 0.00 | 0.00 | 0.00 | 50 | 1008.3 |
| 20260503233509 | 48 | 229 | 0.9 | 1.7 | 0.00 | 0.00 | 0.00 | 46 | 1008.3 |
| 20260503233004 | 49 | 51 | 0.9 | 2.6 | 0.00 | 0.00 | 0.00 | 47 | 1008.3 |
| 20260503232502 | 49 | 309 | 0.0 | 4.3 | 0.00 | 0.00 | 0.00 | 46 | 1008.2 |
| 20260503232003 | 49 | 279 | 0.9 | 4.3 | 0.00 | 0.00 | 0.00 | 46 | 1008.2 |
| 20260503231504 | 50 | 329 | 1.7 | 4.3 | 0.00 | 0.00 | 0.00 | 44 | 1008.2 |
| 20260503231004 | 51 | 9 | 1.7 | 4.3 | 0.00 | 0.00 | 0.00 | 42 | 1008.2 |
| 20260503230503 | 51 | 341 | 1.7 | 8.7 | 0.00 | 0.00 | 0.00 | 41 | 1008.2 |
| 20260503230004 | 51 | 22 | 3.5 | 8.7 | 0.00 | 0.00 | 0.00 | 39 | 1008.2 |
| 20260503225503 | 51 | 57 | 0.9 | 8.7 | 0.00 | 0.00 | 0.00 | 41 | 1008.2 |
| 20260503225003 | 52 | 13 | 3.5 | 10.4 | 0.00 | 0.00 | 0.00 | 40 | 1008.2 |
| 20260503224505 | 52 | 36 | 5.2 | 10.4 | 0.00 | 0.00 | 0.00 | 38 | 1008.2 |
| 20260503224003 | 52 | 31 | 6.1 | 12.2 | 0.00 | 0.00 | 0.00 | 39 | 1008.2 |
| 20260503223505 | 52 | 15 | 4.3 | 12.2 | 0.00 | 0.00 | 0.00 | 40 | 1008.2 |
| 20260503223008 | 53 | 67 | 1.7 | 10.4 | 0.00 | 0.00 | 0.00 | 41 | 1008.2 |
| 20260503222505 | 53 | 28 | 4.3 | 12.2 | 0.00 | 0.00 | 0.00 | 37 | 1008.2 |
| 20260503222003 | 53 | 291 | 6.1 | 12.2 | 0.00 | 0.00 | 0.00 | 37 | 1008.2 |
| 20260503221503 | 53 | 331 | 1.7 | 11.3 | 0.00 | 0.00 | 0.00 | 42 | 1008.2 |
| 20260503221002 | 53 | 346 | 1.7 | 11.3 | 0.00 | 0.00 | 0.00 | 38 | 1008.2 |
| 20260503220505 | 53 | 28 | 5.2 | 8.7 | 0.00 | 0.00 | 0.00 | 39 | 1008.1 |
| 20260503220012 | 53 | 59 | 1.7 | 7.8 | 0.00 | 0.00 | 0.00 | 42 | 1008.2 |
| 20260503215504 | 52 | 13 | 4.3 | 10.4 | 0.00 | 0.00 | 0.00 | 40 | 1008.2 |
| 20260503215003 | 52 | 340 | 0.9 | 10.4 | 0.00 | 0.00 | 0.00 | 41 | 1008.1 |
| 20260503214512 | 52 | 238 | 2.6 | 9.6 | 0.00 | 0.00 | 0.00 | 42 | 1008.1 |
| 20260503214003 | 53 | 309 | 2.6 | 10.4 | 0.00 | 0.00 | 0.00 | 41 | 1008.1 |
| 20260503213505 | 53 | 49 | 5.2 | 13.0 | 0.00 | 0.00 | 0.00 | 39 | 1008.1 |
| 20260503213004 | 52 | 23 | 6.1 | 15.6 | 0.00 | 0.00 | 0.00 | 39 | 1008.1 |
| 20260503212504 | 52 | 47 | 4.3 | 15.6 | 0.00 | 0.00 | 0.00 | 40 | 1008.1 |
| 20260503212006 | 52 | 347 | 2.6 | 17.4 | 0.00 | 0.00 | 0.00 | 40 | 1008.1 |
| 20260503211508 | 53 | 336 | 6.1 | 20.0 | 0.00 | 0.00 | 0.00 | 38 | 1008.1 |
| 20260503211003 | 53 | 332 | 8.7 | 20.0 | 0.00 | 0.00 | 0.00 | 38 | 1008.1 |
| 20260503210504 | 52 | 11 | 8.7 | 14.8 | 0.00 | 0.00 | 0.00 | 38 | 1008.1 |
| 20260503210014 | 52 | 33 | 7.8 | 14.8 | 0.00 | 0.00 | 0.00 | 40 | 1008.0 |
| 20260503205504 | 53 | 313 | 6.1 | 13.9 | 0.00 | 0.00 | 0.00 | 39 | 1008.0 |
| 20260503205005 | 52 | 9 | 6.1 | 13.9 | 0.00 | 0.00 | 0.00 | 41 | 1008.0 |
| 20260503204518 | 52 | 316 | 1.7 | 13.0 | 0.00 | 0.00 | 0.00 | 43 | 1008.1 |
| 20260503204003 | 52 | 305 | 4.3 | 19.1 | 0.00 | 0.00 | 0.00 | 40 | 1008.0 |
| 20260503203502 | 53 | 317 | 5.2 | 19.1 | 0.00 | 0.00 | 0.00 | 39 | 1008.1 |
| 20260503203012 | 53 | 44 | 12.2 | 18.2 | 0.00 | 0.00 | 0.00 | 41 | 1008.0 |
| 20260503202504 | 52 | 18 | 3.5 | 17.4 | 0.00 | 0.00 | 0.00 | 42 | 1008.0 |
| 20260503202006 | 52 | 338 | 7.0 | 20.9 | 0.00 | 0.00 | 0.00 | 40 | 1008.1 |
| 20260503201508 | 52 | 20 | 9.6 | 20.9 | 0.00 | 0.00 | 0.00 | 42 | 1008.0 |
| 20260503201003 | 52 | 15 | 6.1 | 13.9 | 0.00 | 0.00 | 0.00 | 40 | 1008.1 |
| 20260503200502 | 52 | 344 | 7.0 | 15.6 | 0.00 | 0.00 | 0.00 | 41 | 1008.2 |
| 20260503200008 | 52 | 328 | 4.3 | 15.6 | 0.00 | 0.00 | 0.00 | 39 | 1008.2 |
| 20260503195503 | 53 | 321 | 6.1 | 13.0 | 0.00 | 0.00 | 0.00 | 42 | 1008.2 |
| 20260503195002 | 52 | 9 | 5.2 | 22.6 | 0.00 | 0.00 | 0.00 | 41 | 1008.3 |
| 20260503194512 | 52 | 313 | 10.4 | 22.6 | 0.00 | 0.00 | 0.00 | 40 | 1008.4 |
| 20260503194006 | 51 | 312 | 7.8 | 20.9 | 0.00 | 0.00 | 0.00 | 42 | 1008.4 |
| 20260503193505 | 51 | 340 | 9.6 | 26.9 | 0.00 | 0.00 | 0.00 | 40 | 1008.4 |
| 20260503193010 | 51 | 26 | 9.6 | 26.9 | 0.00 | 0.00 | 0.00 | 40 | 1008.5 |
| 20260503192503 | 51 | 34 | 13.9 | 24.3 | 0.00 | 0.00 | 0.00 | 41 | 1008.6 |
| 20260503192002 | 52 | 315 | 6.1 | 19.1 | 0.00 | 0.00 | 0.00 | 43 | 1008.5 |
| 20260503191512 | 52 | 291 | 7.0 | 13.9 | 0.00 | 0.00 | 0.00 | 41 | 1008.5 |
| 20260503191002 | 52 | 48 | 5.2 | 20.0 | 0.00 | 0.00 | 0.00 | 41 | 1008.5 |
| 20260503190505 | 52 | 324 | 8.7 | 20.0 | 0.00 | 0.00 | 0.00 | 41 | 1008.5 |
| 20260503190017 | 52 | 309 | 7.0 | 19.1 | 0.00 | 0.00 | 0.00 | 43 | 1008.4 |
| 20260503185504 | 52 | 26 | 6.1 | 19.1 | 0.00 | 0.00 | 0.00 | 46 | 1008.4 |
| 20260503185005 | 51 | 297 | 4.3 | 23.5 | 0.00 | 0.00 | 0.00 | 44 | 1008.5 |
| 20260503184513 | 51 | 313 | 6.1 | 23.5 | 0.00 | 0.00 | 0.00 | 42 | 1008.5 |
| 20260503184004 | 51 | 277 | 7.8 | 14.8 | 0.00 | 0.00 | 0.00 | 43 | 1008.5 |
| 20260503183504 | 51 | 300 | 5.2 | 22.6 | 0.00 | 0.00 | 0.00 | 44 | 1008.4 |
| 20260503183012 | 52 | 325 | 8.7 | 22.6 | 0.00 | 0.00 | 0.00 | 42 | 1008.4 |
| 20260503182503 | 52 | 25 | 7.8 | 20.9 | 0.00 | 0.00 | 0.00 | 42 | 1008.4 |
| 20260503182004 | 52 | 346 | 11.3 | 24.3 | 0.00 | 0.00 | 0.00 | 41 | 1008.5 |
| 20260503181517 | 52 | 54 | 13.0 | 24.3 | 0.00 | 0.00 | 0.00 | 41 | 1008.5 |
| 20260503181003 | 52 | 303 | 9.6 | 23.5 | 0.00 | 0.00 | 0.00 | 40 | 1008.3 |
| 20260503180506 | 52 | 16 | 8.7 | 20.9 | 0.00 | 0.00 | 0.00 | 40 | 1008.6 |
| 20260503180024 | 53 | 346 | 7.8 | 20.9 | 0.00 | 0.00 | 0.00 | 38 | 1008.6 |
| 20260503175511 | 54 | 265 | 3.5 | 20.9 | 0.00 | 0.00 | 0.00 | 41 | 1008.5 |
| 20260503175006 | 53 | 338 | 7.8 | 19.1 | 0.00 | 0.00 | 0.00 | 44 | 1008.5 |
| 20260503174516 | 53 | 42 | 12.2 | 19.1 | 0.00 | 0.00 | 0.00 | 41 | 1008.6 |
| 20260503174004 | 51 | 294 | 7.8 | 21.7 | 0.00 | 0.00 | 0.00 | 42 | 1008.5 |
| 20260503173504 | 51 | 20 | 7.8 | 28.7 | 0.00 | 0.00 | 0.00 | 44 | 1008.5 |
| 20260503173004 | 51 | 293 | 9.6 | 28.7 | 0.00 | 0.00 | 0.00 | 44 | 1008.5 |
| 20260503172507 | 52 | 55 | 16.5 | 28.7 | 0.00 | 0.00 | 0.00 | 41 | 1008.5 |
| 20260503172004 | 52 | 24 | 13.0 | 20.9 | 0.00 | 0.00 | 0.00 | 44 | 1008.2 |
| 20260503171510 | 52 | 303 | 9.6 | 19.1 | 0.00 | 0.00 | 0.00 | 43 | 1008.1 |
| 20260503171003 | 52 | 13 | 8.7 | 19.1 | 0.00 | 0.00 | 0.00 | 45 | 1008.1 |
| 20260503170503 | 51 | 9 | 6.1 | 26.1 | 0.00 | 0.00 | 0.00 | 43 | 1008.3 |
| 20260503151008 | 52 | 36 | 11.3 | 20.0 | 0.00 | 0.00 | 0.00 | 48 | 1008.4 |
| 20260503150507 | 51 | 50 | 5.2 | 23.5 | 0.00 | 0.00 | 0.00 | 50 | 1008.5 |
| 20260503131005 | 47 | 350 | 7.0 | 15.6 | 0.00 | 0.08 | 0.00 | 59 | 1009.1 |
| 20260503130507 | 46 | 38 | 6.1 | 15.6 | 0.00 | 0.08 | 0.00 | 61 | 1008.9 |
| 20260503110509 | 39 | 325 | 0.0 | 1.7 | 0.00 | 0.09 | 0.00 | 89 | 1009.0 |
| 20260503090504 | 37 | 51 | 1.7 | 2.6 | 0.00 | 0.11 | 0.00 | 87 | 1009.1 |
| 20260503081526 | 37 | 309 | 0.0 | 2.6 | 0.00 | 0.18 | 0.00 | 87 | 1009.5 |
| 20260503081003 | 37 | 9 | 0.0 | 2.6 | 0.00 | 0.19 | 0.00 | 88 | 1009.6 |
| 20260503080504 | 37 | 178 | 0.9 | 2.6 | 0.00 | 0.20 | 0.00 | 87 | 1009.7 |
| 20260503072507 | 37 | 325 | 0.9 | 2.6 | 0.00 | 0.23 | 0.00 | 86 | 1009.8 |
| 20260503072008 | 38 | 93 | 0.9 | 2.6 | 0.00 | 0.24 | 0.00 | 86 | 1009.9 |
| 20260503071520 | 38 | 332 | 1.7 | 2.6 | 0.00 | 0.24 | 0.00 | 86 | 1010.0 |
| 20260503071007 | 38 | 321 | 0.9 | 2.6 | 0.00 | 0.25 | 0.00 | 86 | 1010.1 |
| 20260503070508 | 38 | 321 | 0.9 | 1.7 | 0.00 | 0.25 | 0.00 | 86 | 1010.2 |
| 20260503055011 | 38 | 301 | 0.0 | 1.7 | 0.00 | 0.34 | 0.00 | 85 | 1010.8 |
| 20260503054535 | 38 | 51 | 0.0 | 2.6 | 0.00 | 0.34 | 0.00 | 85 | 1010.7 |
| 20260503054009 | 38 | 178 | 0.9 | 2.6 | 0.00 | 0.34 | 0.00 | 86 | 1010.8 |
| 20260503053509 | 38 | 243 | 0.9 | 1.7 | 0.00 | 0.34 | 0.00 | 85 | 1010.8 |
| 20260503053016 | 38 | 243 | 0.9 | 1.7 | 0.00 | 0.34 | 0.00 | 86 | 1010.9 |
| 20260503052504 | 38 | 232 | 0.9 | 1.7 | 0.00 | 0.35 | 0.00 | 86 | 1010.9 |
| 20260503052006 | 38 | 250 | 0.9 | 1.7 | 0.00 | 0.35 | 0.00 | 85 | 1011.0 |
| 20260503051515 | 38 | 265 | 0.0 | 2.6 | 0.00 | 0.35 | 0.00 | 85 | 1011.1 |
| 20260503051008 | 38 | 9 | 0.0 | 2.6 | 0.00 | 0.35 | 0.00 | 84 | 1011.0 |
| 20260503050505 | 38 | 316 | 0.9 | 2.6 | 0.00 | 0.36 | 0.00 | 84 | 1011.1 |
| 20260503050027 | 37 | 334 | 0.0 | 0.9 | 0.00 | 0.36 | 0.00 | 84 | 1011.3 |
| 20260503045509 | 38 | 137 | 0.0 | 2.6 | 0.00 | 0.36 | 0.00 | 85 | 1011.4 |
| 20260503045007 | 38 | 221 | 0.9 | 2.6 | 0.00 | 0.36 | 0.00 | 85 | 1011.4 |
| 20260503044522 | 38 | 275 | 0.9 | 2.6 | 0.00 | 0.36 | 0.00 | 86 | 1011.4 |
| 20260503044011 | 38 | 250 | 0.9 | 2.6 | 0.00 | 0.36 | 0.00 | 86 | 1011.5 |
| 20260503043511 | 38 | 238 | 0.9 | 1.7 | 0.00 | 0.36 | 0.00 | 85 | 1011.4 |
| 20260503043026 | 38 | 265 | 0.0 | 2.6 | 0.00 | 0.36 | 0.00 | 83 | 1011.4 |
| 20260503042513 | 38 | 9 | 0.9 | 2.6 | 0.00 | 0.36 | 0.00 | 84 | 1011.5 |
| 20260503042010 | 38 | 282 | 0.9 | 1.7 | 0.00 | 0.36 | 0.00 | 84 | 1011.6 |
| 20260503041526 | 38 | 291 | 0.9 | 1.7 | 0.00 | 0.36 | 0.00 | 84 | 1011.7 |
| 20260503041006 | 38 | 309 | 0.0 | 1.7 | 0.00 | 0.36 | 0.00 | 84 | 1011.7 |
| 20260503040512 | 38 | 325 | 0.9 | 1.7 | 0.00 | 0.36 | 0.00 | 84 | 1011.7 |
| 20260503040027 | 38 | 9 | 0.0 | 1.7 | 0.00 | 0.36 | 0.00 | 85 | 1011.8 |
| 20260503035507 | 39 | 221 | 0.0 | 1.7 | 0.00 | 0.36 | 0.36 | 84 | 1011.8 |
| 20260503035007 | 39 | 126 | 0.0 | 2.6 | 0.00 | 0.36 | 0.36 | 82 | 1011.8 |
| 20260503034520 | 39 | 9 | 0.0 | 3.5 | 0.00 | 0.36 | 0.36 | 78 | 1011.8 |
| 20260503034008 | 40 | 309 | 1.7 | 3.5 | 0.00 | 0.36 | 0.36 | 79 | 1011.7 |
| 20260503033507 | 39 | 9 | 0.9 | 2.6 | 0.00 | 0.36 | 0.36 | 82 | 1011.8 |
| 20260503033024 | 40 | 51 | 0.0 | 2.6 | 0.00 | 0.36 | 0.36 | 80 | 1011.8 |
| 20260503032511 | 41 | 291 | 0.0 | 2.6 | 0.00 | 0.36 | 0.36 | 79 | 1011.8 |
| 20260503032010 | 41 | 309 | 0.9 | 2.6 | 0.00 | 0.36 | 0.36 | 75 | 1011.8 |
| 20260503031528 | 40 | 291 | 1.7 | 2.6 | 0.00 | 0.36 | 0.36 | 76 | 1011.8 |